星链-31806 (STARLINK-31806 )

导读

STARLINK-31806是美国SpaceX公司星链计划中的卫星,于2024年5月3日发射升空。作为星链星座的组成部分,它旨在为全球提供高速低延迟互联网服务,尤其覆盖偏远地区。该卫星继承星链技术特点,依托星座组网,助力全球互联网覆盖基础设施建设,推进SpaceX的全球卫星互联网布局。

基本信息
目录编号:
59640
目录名称:
STARLINK-31806
国际标识:
2024-082K
轨道中心:
EARTH
卫星名称:
星链-31806
卫星全名:
星链-31806 (STARLINK-31806 )
卫星状态:
在轨 (已飞行776 天)
发射日期:
2024-05-03 UTC
国别 :
美国 (US)
星等 :
--
轨道信息
数据来源 国际轨道数据
星历时间: 2026-06-18T03:28:46+0800
6小时前
查看轨道信息
半长轴: 6861.195km
偏心率: 0.0001713
轨道倾角: 43.003°
近地点辐角 269.360°
升交点赤经 294.431°
平近点角 90.706°
近地点: 481.882km
远地点: 484.234km
周期: 94.267分钟
每日圈数: 15.275772
详细信息
固有亮度:
5
最大亮度:
1.5
卫星平台:
Starlink v2.0 mini
覆盖范围:
全球
运营商:
太空探索技术公司
运营商所在国:
美国
制造商(研发单位):
太空探索技术公司
制造商所在国:
美国
使用方式:
暂无
卫星简介
星链(Starlink)计划是由太空探索技术公司(SpaceX)提出的一个巨型低轨卫星互联网星座项目,计划在2019年至2024年间在太空搭建由约1.2万颗卫星组成的“星链”网络,其中1584颗将部署在地球上空550千米处的近地轨道,并从2020年开始工作。该卫星仍在工作。
2D轨道图
3D轨道图
轨道高度分析图
轨道倾角分析图
轨道综合分析图
查看轨道综合分析图